Location: Boston
(42.3580°N, 71.0600°W)
Time: 17:32:50
(UTC-04:00)

Tiangong 1 - Pass Details

Date: 07 October 2017
Orbit: 292 x 320 km, 42.8° (Epoch: 21 October)

Event Time Altitude Azimuth Distance (km) Brightness Sun altitude
Rises 20:21:31 0° 268° (W) 2,028 6.0 -24.0°
Reaches altitude 10° 20:23:30 10° 270° (W) 1,194 4.5 -24.4°
Enters shadow 20:24:12 16° 271° (W) 907 3.8 -24.5°
